SCP
0 0 0 0 0 0 0 0 0 0 0 0 0 0 0 0 0 0 0 0 0 0 0 0 0 0 0 0 0 0 0 0 0 0 0 0 0 0 0 0 0 0 0
0 0 0 0 0 0 0 0 0 0 0 0 0 0 0 0 0 0 0 0 0 0 0 0 0 0 0 0 0 0 0 0 0 0 0 0 0 0 0 0 0 0 0
0 0 0 0 0 0 0 0 0 0 0 0 0 0 0 0 0 0 0 0 0 0 0 0 0 0 0 0 0 0 0 0 0 0 0 0 0 0 0 0 0 0 0
0 0 0 0 0 0 0 0 0 0 0 0 0 0 0 0 0 0 0 0 0 0 0 0 0 0 0 0 0 0 0 0 0 0 0 0 0 0 0 0 0 0 0
0 0 0 0 0 0 0 0 0 0 0 0 0 0 0 0 0 0 0 0 0 0 0 0 0 0 0 0 0 0 0 0 0 0 0 0 0 0 0 0 0 0 0
0 0 0 0 0 0 0 0 0 0 0 0 0 0 0 0 0 0 0 0 0 0 0 0 0 0 0 0 0 0 0 0 0 0 0 0 0 0 0 0 0 0 0
0 0 0 0 0 0 0 0 0 0 0 0 0 0 0 0 0 0 0 0 0 0 0 0 0 0 0 0 0 0 0 0 0 0 0 0 0 0 0 0 0 0 0
0 0 0 0 0 0 0 0 0 0 0 0 0 0 0 0 0 0 0 0 0 0 0 0 0 0 0 0 0 0 0 0 0 0 0 0 0 0 0 0 0 0 0
0 0 0 0 0 0 0 0 0 0 0 0 0 0 0 0 0 0 0 0 0 0 0 0 0 0 0 0 0 0 0 0 0 0 0 0 0 0 0 0 0 0 0
0 0 0 0 0 0 0 0 0 0 0 0 0 0 0 0 0 0 0 0 0 0 0 0 0 0 0 0 0 0 0 0 0 0 0 0 0 0 0 0 0 0 0
0 0 0 0 0 0 0 0 0 0 0 0 0 0 0 0 0 0 0 0 0 0 0 0 0 0 0 0 0 0 0 0 0 0 0 0 0 0 0 0 0 0 0
0 0 0 0 0 0 0 0 0 0 0 0 0 0 0 0 0 0 0 0 0 0 0 0 0 0 0 0 0 0 0 0 0 0 0 0 0 0 0 0 0 0 0
0 0 0 0 0 0 0 0 0 0 0 0 0 0 0 0 0 0 0 0 0 0 0 0 0 0 0 0 0 0 0 0 0 0 0 0 0 0 0 0 0 0 0
0 0 0 0 0 0 0 0 0 0 0 0 0 0 0 0 0 0 0 0 0 0 0 0 0 0 0 0 0 0 0 0 0 0 0 0 0 0 0 0 0 0 0
0 0 0 0 0 0 0 0 0 0 0 0 0 0 0 0 0 0 0 0 0 0 0 0 0 0 0 0 0 0 0 0 0 0 0 0 0 0 0 0 0 0 0
0 0 0 0 0 0 0 0 0 0 0 0 0 0 0 0 0 0 0 0 0 0 0 0 0 0 0 0 0 0 0 0 0 0 0 0 0 0 0 0 0 0 0
0 0 0 0 0 0 0 0 0 0 0 0 0 0 0 0 0 0 0 0 0 0 0 0 0 0 0 0 0 0 0 0 0 0 0 0 0 0 0 0 0 0 0
0 0 0 0 0 0 0 0 0 0 0 0 0 0 0 0 0 0 0 0 0 0 0 0 0 0 0 0 0 0 0 0 0 0 0 0 0 0 0 0 0 0 0
0 0 0 0 0 0 0 0 0 0 0 0 0 0 0 -0 -0 0 0 0 0 0 0 0 0 0 0 0 0 0 0 0 0 0 0 0 0 0 0 0 0 0 0
0 0 0 0 0 0 0 0 0 0 0 0 0 -0 -0 -0 -0 0 0 -0 -0 0 0 0 0 0 0 0 0 0 0 0 0 0 0 0 0 0 0 0 0 0 0
0 0 0 0 0 0 0 0 0 0 0 0 0 0 0 0 0 0 0 -0 -0 0 0 0 0 0 0 0 0 0 0 0 0 0 0 0 0 0 0 0 0 0 0
0 0 0 0 0 0 0 0 0 0 0 0 0 0 0 0 0 0 0 0 0 0 0 0 0 0 0 0 0 0 0 0 0 0 0 0 0 0 0 0 0 0 0
0 0 0 0 0 0 0 0 0 0 0 0 0 0 0 0 0 0 0 0 0 0 0 0 0 0 0 0 0 0 0 0 0 0 0 0 0 0 0 0 0 0 0
0 0 0 0 0 0 0 0 0 0 0 0 0 0 0 0 0 0 0 0 0 0 0 0 0 0 0 0 0 0 0 0 0 0 0 0 0 0 0 0 0 0 0
0 0 0 0 0 0 0 0 0 0 0 0 0 0 0 0 0 0 0 0 0 0 0 0 0 0 0 0 0 0 0 0 0 0 0 0 0 0 0 0 0 0 0
0 0 0 0 0 0 0 0 0 0 0 0 0 0 0 0 0 0 0 0 0 0 0 0 0 0 0 0 0 0 0 0 0 0 0 0 0 0 0 0 0 0 0
Wind_Speed
3 4 10 10 9 9 8 8 8 8 7 7 7 7 7 7 7 7 7 6 6 6 6 6 6 6 6 6 6 6 6 6 6 5 5 5 5 6 6 7 7 5 8
6 5 10 10 9 8 8 7 7 6 6 6 5 5 5 5 5 5 5 4 4 4 4 4 4 5 5 5 5 5 5 5 5 4 3 3 3 4 6 7 7 4 8
8 6 8 10 9 8 7 7 6 6 5 4 4 4 4 3 3 3 3 3 2 3 3 3 3 3 3 3 3 3 3 4 4 4 3 1 1 4 6 7 7 8 8
9 7 7 10 9 8 7 6 6 5 4 4 3 3 2 2 1 1 1 1 1 1 2 2 2 2 2 2 1 1 2 2 3 3 2 0 1 5 6 7 7 8 7
8 6 8 11 9 8 7 6 5 4 3 3 2 2 1 1 0 1 1 1 1 1 2 2 2 2 2 1 0 1 1 2 3 2 1 0 1 5 7 7 7 7 7
8 6 7 11 10 8 7 6 4 3 2 1 1 1 1 2 2 2 2 2 2 2 3 3 3 3 3 2 2 2 2 3 2 1 1 1 2 6 8 7 7 7 7
7 6 7 11 10 9 7 6 4 3 2 1 1 2 2 2 3 3 3 3 3 3 4 4 3 4 4 3 4 3 3 4 2 1 1 2 3 7 8 8 7 7 7
9 7 6 11 10 8 7 5 4 2 1 1 2 3 3 4 4 4 5 5 4 5 5 5 5 5 5 5 5 5 5 4 2 1 1 2 6 8 8 8 7 7 7
8 7 5 5 6 8 8 6 5 3 2 2 3 4 4 5 6 6 6 6 6 6 6 6 7 6 6 7 7 7 6 5 2 1 2 2 6 9 9 9 8 8 7
6 6 5 4 4 3 4 6 5 3 2 3 4 5 6 6 6 7 7 7 8 7 7 7 7 8 8 8 8 8 7 5 2 2 1 3 7 9 10 10 9 9 8
6 5 5 4 4 3 3 4 3 2 2 3 4 6 5 3 3 4 6 8 8 8 8 8 8 8 8 7 8 9 6 2 2 2 2 5 7 9 10 10 10 9 9
6 5 4 4 4 3 3 1 0 1 1 2 2 3 2 2 2 3 5 6 6 7 7 7 8 7 5 2 5 6 2 2 2 2 3 7 8 10 10 11 10 10 9
6 5 5 5 4 4 2 1 0 0 1 1 2 1 1 2 2 2 2 3 3 4 2 3 4 2 2 2 2 2 2 2 1 2 3 6 7 10 11 11 11 10 10
6 5 5 5 4 3 2 1 1 0 0 0 1 1 1 1 2 2 1 2 2 1 1 1 1 2 2 2 3 3 3 2 2 2 3 7 7 9 10 11 11 11 11
7 6 6 6 5 3 3 1 2 1 1 1 1 2 2 1 2 2 2 2 2 1 1 1 1 2 2 2 2 3 3 3 3 3 2 6 7 9 10 11 11 11 12
7 6 5 6 5 4 3 2 1 1 1 1 2 2 2 2 2 2 2 2 2 2 1 1 1 1 1 1 2 2 2 2 3 3 2 3 6 8 9 10 11 11 12
9 7 7 6 5 5 4 3 2 1 2 1 1 2 3 3 2 2 2 2 2 2 2 1 2 1 1 1 2 2 1 2 2 3 3 2 3 6 8 9 10 11 12
9 7 6 7 6 5 4 3 2 2 2 1 1 2 3 3 2 2 2 2 3 2 2 1 1 1 1 1 1 1 1 1 2 2 2 2 2 3 5 7 8 10 11
10 8 7 7 6 5 4 3 2 2 2 1 1 1 2 2 2 2 1 2 2 2 2 2 1 1 1 2 2 1 1 1 2 2 2 3 3 3 3 5 8 9 9
9 8 8 7 6 5 3 3 2 2 1 1 0 0 1 1 2 2 1 2 2 2 2 1 1 1 1 1 2 1 1 1 1 2 2 2 2 3 3 3 3 5 9
8 8 8 7 5 4 2 2 1 0 0 1 1 1 0 1 1 1 1 2 2 1 1 1 1 1 2 1 2 2 3 2 1 1 1 1 2 3 3 4 3 2 3
9 8 7 7 6 5 3 2 2 1 1 1 1 1 1 1 1 1 1 1 1 1 2 2 1 1 1 2 2 2 2 4 3 1 1 1 1 1 2 3 3 3 3
9 9 9 7 6 5 4 3 2 2 2 2 1 2 2 1 1 1 1 1 1 0 1 1 1 1 1 1 1 2 2 1 2 3 2 1 1 0 1 1 3 3 4
9 8 8 8 7 6 5 4 3 2 1 2 2 2 2 2 1 1 1 0 0 0 0 1 1 1 2 1 1 1 1 2 1 2 3 2 2 0 1 2 2 3 3
9 9 8 8 6 5 5 5 4 2 2 1 1 1 1 2 2 1 1 1 1 0 0 1 1 1 1 1 0 0 1 1 1 2 1 3 2 2 1 1 1 2 2
7 8 8 8 6 5 5 5 5 4 2 1 0 1 1 1 2 2 1 1 0 0 0 0 1 1 1 1 1 1 1 1 0 1 0 1 2 2 2 1 0 1 2
Wind_Direction
150 165 145 137 131 126 122 116 112 111 111 111 109 108 107 106 104 102 100 96 93 89 86 82 81 77 74 69 64 62 62 61 60 64 71 79 85 90 95 102 98 88 87
149 150 139 133 129 125 122 118 115 111 111 111 108 106 107 107 106 104 103 101 99 97 94 91 89 87 84 75 64 57 54 52 45 46 57 77 93 104 107 110 108 105 94
137 139 135 131 129 126 123 119 112 108 106 106 105 99 96 100 104 103 102 104 109 111 109 110 109 104 100 90 69 51 44 38 28 24 34 86 136 127 119 115 113 111 103
137 138 135 133 130 128 124 117 110 103 98 95 94 94 92 96 96 107 124 131 148 151 145 153 148 137 128 110 84 44 26 19 12 8 22 171 182 143 134 124 120 116 110
135 137 139 135 130 126 123 119 114 107 100 89 79 80 67 38 357 301 273 249 217 214 194 192 194 191 183 173 197 304 334 339 342 8 355 181 168 159 144 135 129 123 117
140 140 143 137 133 130 127 124 118 110 100 78 38 340 298 298 299 296 290 276 251 245 237 227 217 218 221 226 239 259 281 298 317 347 342 206 182 170 152 144 140 133 126
145 148 149 144 142 139 137 135 129 117 89 28 340 327 315 299 290 286 285 279 271 263 251 242 237 230 232 245 249 252 262 282 277 279 248 210 197 175 158 152 149 144 139
151 158 157 154 153 152 151 151 150 150 145 351 330 317 304 301 293 281 275 275 267 263 258 252 246 237 238 246 252 253 255 266 277 300 283 218 202 182 168 161 156 151 148
152 154 160 163 163 163 164 165 170 182 210 270 304 308 297 295 298 293 279 270 267 264 262 259 254 248 249 251 252 253 254 261 267 265 277 237 210 189 177 169 164 160 155
153 156 166 172 170 172 182 183 187 199 228 271 290 298 299 302 305 299 287 272 268 268 267 266 261 255 255 256 255 254 255 266 257 250 262 248 225 197 183 176 172 170 164
158 164 165 169 170 179 197 202 198 218 262 293 307 305 308 309 307 300 288 273 264 267 270 271 267 262 257 258 259 258 260 242 238 239 242 249 226 201 190 182 176 175 170
171 172 163 163 164 174 196 167 227 267 297 306 304 310 314 310 309 311 298 288 273 273 277 274 271 267 263 255 261 263 247 237 235 238 245 253 225 203 193 186 179 177 175
169 161 157 157 157 158 159 157 177 274 313 323 321 325 341 349 344 348 346 327 313 301 301 297 294 283 257 231 236 244 241 234 231 243 251 250 224 204 195 190 183 181 180
157 158 151 148 143 147 132 122 131 123 64 327 339 9 38 12 3 1 359 335 330 317 305 298 290 282 269 246 235 235 237 222 222 230 245 240 222 208 201 193 188 186 185
157 157 148 140 135 134 111 97 96 102 95 40 23 13 39 34 4 1 351 355 343 324 311 305 298 293 281 259 248 237 239 232 223 223 248 239 225 217 208 200 193 190 188
163 157 146 137 138 127 112 104 106 96 74 61 50 37 43 46 21 3 353 353 344 331 320 307 309 300 284 269 269 256 242 233 229 222 222 237 233 225 216 208 200 195 190
164 154 147 142 133 122 114 106 100 92 93 72 47 43 42 42 37 28 4 350 334 334 346 354 345 350 337 314 287 274 252 246 229 229 215 216 230 232 220 214 209 201 196
156 150 148 136 128 120 115 107 99 92 92 87 69 45 34 31 39 39 14 344 335 347 359 2 6 359 344 327 307 295 272 258 233 232 213 214 215 224 225 220 213 206 200
157 150 139 133 134 128 116 105 95 93 97 112 90 51 26 23 30 40 15 337 342 358 358 350 28 9 337 322 292 277 268 243 227 222 210 218 218 219 216 223 216 210 204
153 146 139 135 136 124 104 87 66 60 56 88 120 18 21 9 20 39 13 345 352 8 360 1 1 345 311 304 314 334 302 268 233 213 211 212 214 216 211 207 204 213 210
149 146 145 143 146 131 113 111 102 89 293 302 274 270 318 334 2 31 1 348 354 5 341 350 9 357 345 360 33 359 345 327 289 248 233 206 219 221 203 197 192 197 210
159 155 153 153 151 147 147 154 165 176 219 240 282 305 286 278 310 2 15 344 345 2 6 13 43 35 352 29 84 64 5 350 340 335 312 239 236 219 210 202 188 189 198
162 163 160 159 154 154 145 113 77 54 29 13 335 305 295 278 301 359 0 358 359 51 356 333 65 99 35 353 70 117 117 255 312 328 340 352 345 220 233 219 199 195 199
170 162 154 156 155 156 143 130 134 141 175 240 246 264 291 291 291 303 339 9 30 62 350 313 75 115 112 47 358 42 144 170 136 340 338 340 334 315 253 238 218 207 198
163 158 155 153 155 157 149 145 144 153 197 246 273 312 315 310 306 304 318 15 36 23 337 12 37 73 105 124 113 30 36 48 88 118 327 329 341 326 286 251 212 201 201
158 154 152 153 161 163 158 155 162 167 173 175 293 324 303 297 307 307 291 321 335 341 351 38 60 79 81 88 96 109 122 103 100 116 158 308 317 308 318 336 299 205 200